Regional Weather Roundup
Issued by NWS

Home | Current Version | Previous Version | Graphics & Text | Print | Product List | Glossary On
Versions: 1 2 3 4 5 6 7 8 9 10 11 12 13 14 15 16 17 18 19 20 21 22 23 24 25 26 27 28 29 30 31 32 33 34 35 36 37 38 39 40 41 42 43 44 45 46 47 48 49 50
000
ASUS43 KIND 011759
RWRIN

WEATHER ROUNDUP FOR INDIANA
NATIONAL WEATHER SERVICE INDIANAPOLIS IN
200 PM EDT SAT AUG 01 2015

NOTE: "FAIR" INDICATES FEW OR NO CLOUDS BELOW 12,000 FEET WITH NO
SIGNIFICANT WEATHER AND/OR OBSTRUCTIONS TO VISIBILITY.

* - STATION DOES NOT REPORT WEATHER SUCH AS PRECIPITATION OR FOG.

+ - STATION NOT QUALITY CONTROLLED BY THE NATIONAL WEATHER SERVICE.
    USE DATA WITH CAUTION...ESPECIALLY DEWPOINT AND RELATIVE
    HUMIDITY OBSERVATIONS.

INZ001>003-010>013-019-020-011900-
NORTHWEST INDIANA

CITY           SKY/WX    TMP DP  RH WIND       PRES   REMARKS
GARY /AIRPORT/ PTSUNNY   84  55  37 W14       29.98F
KNOX *+        PTSUNNY   81  54  39 W8        29.98F
MONTICELLO +   SUNNY     82  58  43 W6        30.00F
6HR MIN TEMP:  61; 6HR MAX TEMP:  82;

RENSSELAER +   MOSUNNY   81  55  41 W6        30.00F

$$

LMZ046-743>745-011900-
SOUTHERN LAKE MICHIGAN

STATION/POSITION TIME  TEMP    WIND        PRES    WAVE
                       AIR SEA DIR/SP/G            HT
                 (UTC) (F)     (DEG/KT/KT) (MB)    (FT)
BURNS HARBOR     1700   79     250/  3/  4 1016.3S
MICHIGAN CITY    1700   74     220/  9/ 10   N/A
5NW MICH CITY    1700   74 74  240/  6/  8   N/A     2

$$

INZ004-005-014>016-021>024-011900-
NORTH CENTRAL INDIANA

CITY           SKY/WX    TMP DP  RH WIND       PRES   REMARKS
GOSHEN         SUNNY     81  54  39 W13       29.98F
6HR MIN TEMP:  62; 6HR MAX TEMP:  81;

SOUTH BEND     SUNNY     83  49  30 NW14      29.99F
6HR MIN TEMP:  65; 6HR MAX TEMP:  83;

WARSAW +       SUNNY     82  54  36 W12G24    29.99F

$$

INZ006>009-017-018-025>027-011900-
NORTHEAST INDIANA

CITY           SKY/WX    TMP DP  RH WIND       PRES   REMARKS
ANGOLA *+      MOSUNNY   82  55  39 W10       29.98S
FORT WAYNE     MOSUNNY   81  53  37 W10       29.99F
6HR MIN TEMP:  64; 6HR MAX TEMP:  82;


$$

INZ028-029-035-036-043>045-051>053-011900-
WEST CENTRAL INDIANA

CITY           SKY/WX    TMP DP  RH WIND       PRES   REMARKS
CRAWFORDSVL +  SUNNY     78  48  34 W6        30.01F
6HR MIN TEMP:  60; 6HR MAX TEMP:  78;

GREENCASTLE +  SUNNY     79  46  31 NW5       30.05F
LAFAYETTE      SUNNY     81  56  42 W10       30.01F
6HR MIN TEMP:  61; 6HR MAX TEMP:  82;

TERRE HAUTE    SUNNY     83  55  38 VRB5      30.03F
6HR MIN TEMP:  63; 6HR MAX TEMP:  84;


$$

INZ030>032-037>040-046>048-054>057-064-065-011900-
CENTRAL INDIANA

CITY           SKY/WX    TMP DP  RH WIND       PRES   REMARKS
ANDERSON       SUNNY     81  45  28 NW10G17   30.03F
COLUMBUS       MOSUNNY   81  45  28 NW10      30.03F
FRANKFORT +    SUNNY     82  58  43 W3        30.04F
6HR MIN TEMP:  65; 6HR MAX TEMP:  82;

GREENWOOD *+   SUNNY     81  48  32 N8        30.04S
INDIANAPOLIS   MOSUNNY   82  52  35 NW9       30.02F
6HR MIN TEMP:  65; 6HR MAX TEMP:  83;

-EAGLE CREEK   SUNNY     80  53  39 NW9       30.03F
6HR MIN TEMP:  66; 6HR MAX TEMP:  81;

KOKOMO *+      SUNNY     82  54  36 W8        30.01F
6HR MIN TEMP:  63; 6HR MAX TEMP:  82;

MT COMFORT *+  SUNNY     82  39  21 NW8       30.03F
SHELBYVILLE    SUNNY     82  54  37 NW8       30.02F
6HR MIN TEMP:  66; 6HR MAX TEMP:  83;


$$

INZ033-034-041-042-049-050-058-059-011900-
EAST CENTRAL INDIANA

CITY           SKY/WX    TMP DP  RH WIND       PRES   REMARKS
MUNCIE         SUNNY     78  55  44 N10       30.02F
6HR MIN TEMP:  62; 6HR MAX TEMP:  78;


$$

INZ060-061-067>069-081>083-085>088-011900-
SOUTHWEST INDIANA

CITY           SKY/WX    TMP DP  RH WIND       PRES   REMARKS
EVANSVILLE     SUNNY     86  57  37 N10       30.04F
6HR MIN TEMP:  75; 6HR MAX TEMP:  87;

HUNTINGBURG *+ SUNNY     84  59  42 NW8       30.03F
6HR MIN TEMP:  70; 6HR MAX TEMP:  84;


$$

INZ062-063-066-070>080-084-089>092-011900-
SOUTH CENTRAL AND SOUTHEAST INDIANA

CITY           SKY/WX    TMP DP  RH WIND       PRES   REMARKS
BLOOMINGTON    SUNNY     82  56  40 N8        30.04F
6HR MIN TEMP:  66; 6HR MAX TEMP:  82;

MADISON *+     SUNNY     81  52  36 N6        30.04F
SEYMOUR +      SUNNY     84  55  37 NW8       30.02F

$$




USA.gov is the U.S. government's official web portal to all federal, state and local government web resources and services.